Flight Track Log - Related Links

Times and Time Zones

All times are in EDT time to prevent confusion due to time zone crossing. See the WIG7307 flight status page for this flight to view local times or setup timezone preferences in your user account.

Time Position Orientation Groundspeed Altitude Reporting Facility
EDT Latitude Longitude Course Direction KTS MPH feet Rate Location/Type
Thu 11:29:00 PM 40.3292 -76.6164 72° East  Level FlightAware Approximate
Thu 11:30:00 PM 40.3410 -76.5695 72° East  Level FlightAware Approximate
Thu 11:31:00 PM 40.3500 -76.5221 90° East  Level FlightAware Approximate
Thu 11:32:00 PM 40.3530 -76.4735 68° East  Level FlightAware Approximate
Thu 11:33:00 PM 40.3667 -76.4276 68° East  Level FlightAware Approximate
Thu 11:34:00 PM 40.3805 -76.3817 68° East  Level FlightAware Approximate
Thu 11:35:00 PM 40.3943 -76.3358 69° East  Level FlightAware Approximate
Thu 11:36:00 PM 40.4088 -76.2903 66° East  Level FlightAware Approximate
Thu 11:36:54 PM 40.3892 -76.2811 79° East 173 199 7,000  Level New York Center
Thu 11:37:00 PM 40.4239 -76.2451 66° East  Level FlightAware Approximate
Thu 11:37:07 PM 40.3939 -76.2678 65° Northeast 172 198 7,000  Level New York Center
Thu 11:38:00 PM 40.4390 -76.1998 66° East  Level FlightAware Approximate
Thu 11:38:07 PM 40.4111 -76.2119 68° East 171 197 7,000  Level New York Center
Thu 11:39:00 PM 40.4531 -76.1541 72° East  Level FlightAware Approximate
Thu 11:39:05 PM 40.4325 -76.1561 63° Northeast 171 197 7,000  Level New York Center
Thu 11:40:00 PM 40.4649 -76.1072 72° East  Level FlightAware Approximate
Thu 11:40:07 PM 40.4478 -76.0947 72° East 172 198 7,000  Level New York Center
Thu 11:41:00 PM 40.4726 -76.0589 79° East  Level FlightAware Approximate
Thu 11:41:06 PM 40.4669 -76.0417 65° Northeast 172 198 7,000  Level New York Center
Thu 11:42:00 PM 40.4795 -76.0103 79° East  Level FlightAware Approximate
Thu 11:42:09 PM 40.4800 -75.9797 74° East 167 192 7,000  Level New York Center
Thu 11:43:10 PM 40.4950 -75.9208 71° East 164 189 7,000  Level New York Center
Thu 11:44:11 PM 40.5119 -75.8703 66° East 160 184 7,000  Level New York Center
Thu 11:45:10 PM 40.5311 -75.8117 67° East 160 184 7,000  Level New York Center
Thu 11:46:11 PM 40.5439 -75.7553 73° East 168 193 7,000  Level New York Center
Thu 11:47:13 PM 40.5611 -75.6936 70° East 168 193 7,000  Level New York Center
Thu 11:48:11 PM 40.5758 -75.6400 70° East 165 190 7,000  Level New York Center
Thu 11:49:13 PM 40.5947 -75.5867 65° Northeast 162 186 7,000  Level New York Center
Thu 11:50:14 PM 40.6094 -75.5275 72° East 160 184 7,000  Level New York Center
Thu 11:51:15 PM 40.6264 -75.4714 68° East 172 198 7,000  Level New York Center
Thu 11:52:15 PM 40.6414 -75.4067 73° East 175 201 7,000 -102 Level New York Center
Thu 11:53:13 PM 40.6564 -75.3447 72° East 172 198 6,800 -397 Descending New York Center
Thu 11:54:16 PM 40.6711 -75.2856 72° East 182 209 6,200 -255 Descending New York Center
Thu 11:56:21 PM 40.7167 -75.1500 66° East 164 189 6,000 -65 Descending New York TRACON
Thu 11:57:21 PM 40.7333 -75.1000 66° East 163 188 6,000  Level New York TRACON
Thu 11:58:27 PM 40.7500 -75.0500 66° East 158 182 6,000  Level New York TRACON
Thu 11:59:33 PM 40.7667 -74.9833 72° East 161 185 6,000  Level New York TRACON
Fri 12:00:33 AM 40.7833 -74.9333 66° East 160 184 6,000  Level New York TRACON
Fri 12:01:33 AM 40.7833 -74.8667 90° East 159 183 6,000 50 Level New York TRACON
Fri 12:02:34 AM 40.8000 -74.8167 66° East 160 184 6,100 -190 Climbing New York TRACON
Fri 12:03:39 AM 40.8000 -74.7500 90° East 186 214 5,600 -624 Descending New York TRACON
Fri 12:04:39 AM 40.7833 -74.6833 108° East 197 227 4,800 -800 Descending New York TRACON
Fri 12:05:39 AM 40.7333 -74.6667 166° South 183 211 4,000 -400 Descending New York TRACON
Fri 12:06:39 AM 40.6833 -74.6500 166° South 176 203 4,000  Level New York TRACON
Fri 12:07:39 AM 40.6333 -74.6333 166° South 171 197 4,000  Level New York TRACON
Fri 12:08:40 AM 40.6000 -74.6167 159° South 162 186 4,000  Level New York TRACON
Fri 12:09:40 AM 40.5667 -74.6500 217° Southwest 159 183 4,000  Level New York TRACON
Fri 12:10:45 AM 40.5333 -74.7000 229° Southwest 153 176 4,000  Level New York TRACON
Fri 12:11:40 AM 40.5000 -74.7333 217° Southwest 150 173 4,000  Level New York TRACON
Fri 12:12:40 AM 40.5000 -74.7833 270° West 151 174 4,000  Level New York TRACON
Fri 12:13:46 AM 40.5000 -74.8500 270° West 153 176 4,000  Level New York TRACON
Fri 12:14:40 AM 40.5167 -74.8833 303° West 139 160 4,000  Level New York TRACON
Fri 12:15:46 AM 40.5500 -74.8667 21° North 126 145 4,000  Level New York TRACON
Fri 12:16:46 AM 40.5667 -74.8333 57° Northeast 137 158 4,000 -150 Level New York TRACON
Fri 12:17:46 AM 40.5833 -74.7833 66° East 155 178 3,700 -400 Descending New York TRACON
Fri 12:18:46 AM 40.5833 -74.7167 90° East 164 189 3,200 -350 Descending New York TRACON
Fri 12:19:46 AM 40.5833 -74.6667 90° East 166 191 3,000 -100 Descending New York TRACON
Fri 12:20:46 AM 40.5667 -74.6000 108° East 170 196 3,000  Level New York TRACON
Fri 12:21:40 AM 40.5333 -74.5667 143° Southeast 171 197 3,000  Level New York TRACON
Fri 12:22:46 AM 40.5000 -74.5167 131° Southeast 176 203 3,000  Level New York TRACON
Fri 12:23:52 AM 40.4667 -74.4667 131° Southeast 169 194 3,000  Level New York TRACON
Fri 12:24:40 AM 40.4333 -74.4333 143° Southeast 172 198 3,000  Level New York TRACON
Fri 12:25:40 AM 40.4000 -74.3833 131° Southeast 170 196 3,000  Level New York TRACON
Fri 12:26:40 AM 40.4000 -74.3333 90° East 169 194 3,000  Level New York TRACON
Fri 12:27:46 AM 40.4500 -74.3167 14° North 149 171 3,000  Level New York TRACON
Fri 12:28:40 AM 40.4833 -74.3000 21° North 149 171 3,000  Level New York TRACON
Fri 12:29:40 AM 40.5167 -74.2667 37° Northeast 150 173 3,000  Level New York TRACON
Fri 12:30:34 AM 40.5500 -74.2500 21° North 148 170 3,000 -421 Level New York TRACON
Fri 12:31:34 AM 40.5833 -74.2333 21° North 152 175 2,200 -895 Descending New York TRACON
Fri 12:32:28 AM 40.6167 -74.2000 37° Northeast 152 175 1,300 -833 Descending New York TRACON
Fri 12:33:22 AM 40.6500 -74.1833 21° North 110 127 700 -667 Descending New York TRACON
Fri 12:35:00 AM 40.6833 -74.1667 30° Northeast  Level FlightAware Approximate
Fri 12:42:00 AM 40.6925 -74.1687 350° North  Level Estimated

Login

Don't have an account? Register now (free) for customized features, flight alerts, and more!